Big Rapids, MI

3:24 PM EDT on August 25, 2016 (GMT -0400)
Roben-Hood

Weather History for KRQB - February, 2015

Change the Weather History Date:

Saturday, February 28, 2015

  Actual Average Record
Temperature  
Mean Temperature 7 °F -  
Max Temperature 23 °F 36 °F 54 °F (1983)
Min Temperature -9 °F 16 °F -21 °F (2014)
Degree Days  
Heating Degree Days 58    
Moisture  
Dew Point 0 °F    
Average Humidity 71    
Maximum Humidity 94    
Minimum Humidity 46    
Precipitation  
Precipitation 0.00 in - - ()
Sea Level Pressure  
Sea Level Pressure 30.57 in    
Wind  
Wind Speed 2 mph (SSW)    
Max Wind Speed 10 mph    
Max Gust Speed 16 mph    
Visibility 9 miles    
Events Snow    
Averages and records for this station are not official NWS values.
T = Trace of Precipitation, MM = Missing Value Source: NWS Daily Summary

Daily Weather History Graph

Daily Weather History Graph

Search for Another Location

Airport or City:

Trip Planner

Search our weather history database for the weather conditions in past years. The results will help you decide how hot, cold, wet, or windy it might be!

Date:

Astronomy

Feb. 28, 2015 Rise Set
Actual Time 7:20 AM EST 6:29 PM EST
Civil Twilight 6:51 AM EST 6:57 PM EST
Nautical Twilight 6:18 AM EST 7:31 PM EST
Astronomical Twilight 5:45 AM EST 8:04 PM EST
Moon 2:05 PM EST (2/28) 4:05 AM EST (2/28)
Length of Visible Light 12h 06m
Length of Day
11h 08m
Waxing Gibbous, 78% of the Moon is Illuminated
Feb 28
Waxing Gibbous
Mar 5
Full
Mar 13
Last Quarter
Mar 20
New
Mar 27
First Quarter

Hourly Weather History & Observations

Time (EST) Temp. Windchill Dew Point Humidity Pressure Visibility Wind Dir Wind Speed Gust Speed Precip Events Conditions
12:12 AM 0.9 °F - -1.7 °F 89% 30.56 in 10.0 mi Calm Calm - N/A   Clear
12:34 AM 0.1 °F - -1.8 °F 91% 30.56 in 10.0 mi Calm Calm - N/A   Scattered Clouds
12:54 AM -2.2 °F - -4.7 °F 89% 30.56 in 10.0 mi Calm Calm - N/A   Scattered Clouds
1:14 AM -2.7 °F - -5.3 °F 89% 30.56 in 10.0 mi Calm Calm - N/A   Clear
1:34 AM -2.2 °F - -4.9 °F 88% 30.56 in 10.0 mi Calm Calm - N/A   Scattered Clouds
1:54 AM -0.8 °F - -3.1 °F 90% 30.57 in 10.0 mi Calm Calm - N/A   Clear
2:14 AM -1.7 °F - -4.4 °F 88% 30.57 in 10.0 mi Calm Calm - N/A   Clear
2:33 AM -2.4 °F - -5.1 °F 88% 30.57 in 10.0 mi Calm Calm - N/A   Scattered Clouds
2:54 AM -2.2 °F - -4.9 °F 88% 30.57 in 10.0 mi Calm Calm - N/A   Mostly Cloudy
3:14 AM -2.9 °F - -5.6 °F 88% 30.57 in 7.0 mi Calm Calm - N/A   Scattered Clouds
3:34 AM -3.8 °F - -6.5 °F 88% 30.57 in 10.0 mi Calm Calm - N/A   Clear
3:54 AM -4.0 °F - -7.1 °F 87% 30.57 in 10.0 mi Calm Calm - N/A   Clear
4:14 AM -5.3 °F - -8.1 °F 87% 30.58 in 10.0 mi Calm Calm - N/A   Scattered Clouds
4:34 AM -4.5 °F - -7.8 °F 86% 30.58 in 7.0 mi Calm Calm - N/A   Mostly Cloudy
4:54 AM -4.4 °F - -7.4 °F 87% 30.58 in 10.0 mi Calm Calm - N/A   Mostly Cloudy
5:14 AM -3.1 °F - -6.2 °F 87% 30.59 in 10.0 mi Calm Calm - N/A   Scattered Clouds
5:34 AM -4.0 °F - -6.9 °F 87% 30.60 in 10.0 mi Calm Calm - N/A   Scattered Clouds
5:54 AM -4.0 °F - -6.7 °F 88% 30.60 in 10.0 mi Calm Calm - N/A Snow Light Snow
6:14 AM -6.3 °F - -9.6 °F 86% 30.61 in 7.0 mi Calm Calm - N/A Snow Light Snow
6:34 AM -6.2 °F - -9.4 °F 86% 30.61 in 7.0 mi Calm Calm - N/A Snow Light Snow
6:54 AM -6.3 °F - -9.6 °F 86% 30.62 in 10.0 mi Calm Calm - N/A Snow Light Snow
7:14 AM -7.6 °F - -10.8 °F 86% 30.62 in 7.0 mi Calm Calm - N/A   Overcast
7:34 AM -9.2 °F - -13.2 °F 83% 30.62 in 7.0 mi Calm Calm - N/A Snow Light Snow
7:54 AM -8.5 °F - -12.3 °F 83% 30.62 in 4.0 mi Calm Calm - N/A   Scattered Clouds
8:14 AM -7.8 °F - -11.2 °F 85% 30.63 in 5.0 mi Calm Calm - N/A Snow Light Snow
8:34 AM -7.8 °F - -11.0 °F 86% 30.64 in 5.0 mi Calm Calm - N/A Snow Light Snow
8:54 AM -6.0 °F - -9.2 °F 86% 30.64 in 7.0 mi Calm Calm - N/A   Scattered Clouds
9:14 AM -1.8 °F -12.0 °F -4.4 °F 89% 30.64 in 10.0 mi SSE 4.6 mph - N/A   Clear
9:34 AM 2.8 °F -6.6 °F 0.9 °F 91% 30.65 in 10.0 mi SSE 4.6 mph - N/A   Clear
9:54 AM 10.2 °F -0.6 °F 8.6 °F 93% 30.65 in 10.0 mi SSE 6.9 mph - N/A   Clear
10:14 AM 11.8 °F 2.5 °F 10.4 °F 94% 30.65 in 10.0 mi SSE 5.8 mph - N/A   Scattered Clouds
10:34 AM 15.6 °F 3.2 °F 13.1 °F 90% 30.64 in 5.0 mi WSW 10.4 mph - N/A   Scattered Clouds
10:54 AM 16.9 °F 6.4 °F 9.5 °F 73% 30.65 in 10.0 mi SW 8.1 mph - N/A   Clear
11:14 AM 17.8 °F 7.5 °F 9.1 °F 69% 30.65 in 10.0 mi WSW 8.1 mph - N/A   Clear
11:34 AM 18.3 °F 7.3 °F 8.2 °F 65% 30.65 in 10.0 mi SSW 9.2 mph - N/A   Clear
11:54 AM 19.0 °F 10.0 °F 7.5 °F 61% 30.65 in 10.0 mi West 6.9 mph - N/A   Clear
12:14 PM 19.4 °F 9.5 °F 7.5 °F 60% 30.64 in 10.0 mi SW 8.1 mph - N/A   Clear
12:34 PM 19.9 °F 9.3 °F 6.6 °F 56% 30.64 in 10.0 mi WSW 9.2 mph - N/A   Clear
12:54 PM 20.8 °F 9.7 °F 7.0 °F 55% 30.63 in 10.0 mi WSW 10.4 mph - N/A   Clear
1:14 PM 21.6 °F 11.3 °F 6.8 °F 53% 30.62 in 10.0 mi WSW 9.2 mph - N/A   Clear
1:34 PM 21.2 °F 11.7 °F 6.3 °F 53% 30.61 in 10.0 mi WSW 8.1 mph - N/A   Clear
1:54 PM 21.9 °F 12.5 °F 6.3 °F 51% 30.60 in 10.0 mi SW 8.1 mph - N/A   Clear
2:14 PM 22.5 °F 12.4 °F 7.0 °F 52% 30.59 in 10.0 mi West 9.2 mph - N/A   Clear
2:34 PM 22.5 °F 11.7 °F 5.9 °F 49% 30.59 in 10.0 mi WSW 10.4 mph - N/A   Clear
2:54 PM 22.5 °F 15.1 °F 5.9 °F 49% 30.58 in 10.0 mi WSW 5.8 mph - N/A   Clear
3:14 PM 23.0 °F 13.9 °F 6.4 °F 49% 30.57 in 10.0 mi WSW 8.1 mph 16.1 mph N/A   Clear
3:34 PM 23.4 °F 14.3 °F 7.3 °F 50% 30.56 in 10.0 mi West 8.1 mph - N/A   Clear
3:54 PM 23.0 °F - 7.5 °F 52% 30.56 in 10.0 mi Calm Calm - N/A   Clear
4:14 PM 22.8 °F 12.9 °F 5.7 °F 48% 30.55 in 10.0 mi SSE 9.2 mph - N/A   Clear
4:34 PM 22.5 °F 17.8 °F 5.4 °F 48% 30.54 in 10.0 mi South 3.5 mph - N/A   Clear
4:54 PM 22.6 °F 13.4 °F 4.5 °F 46% 30.54 in 10.0 mi South 8.1 mph - N/A   Clear
5:14 PM 22.1 °F 11.3 °F 4.1 °F 46% 30.53 in 10.0 mi South 10.4 mph - N/A   Clear
5:34 PM 21.9 °F 13.4 °F 4.1 °F 46% 30.53 in 10.0 mi South 6.9 mph - N/A   Clear
5:54 PM 20.7 °F 11.0 °F 3.9 °F 48% 30.52 in 10.0 mi South 8.1 mph - N/A   Clear
6:14 PM 19.9 °F 13.4 °F 3.7 °F 50% 30.53 in 10.0 mi South 4.6 mph - N/A   Clear
6:34 PM 19.0 °F 12.3 °F 2.7 °F 49% 30.53 in 10.0 mi South 4.6 mph - N/A   Clear
6:54 PM 18.3 °F 13.1 °F 1.9 °F 49% 30.52 in 10.0 mi South 3.5 mph - N/A   Clear
7:14 PM 17.2 °F 11.9 °F 1.4 °F 50% 30.52 in 10.0 mi SSW 3.5 mph - N/A   Clear
7:34 PM 15.8 °F 10.2 °F 1.9 °F 54% 30.52 in 10.0 mi SW 3.5 mph - N/A   Clear
7:54 PM 15.8 °F 8.6 °F 2.3 °F 55% 30.52 in 10.0 mi SW 4.6 mph - N/A   Clear
8:14 PM 12.4 °F 6.3 °F 1.2 °F 61% 30.51 in 10.0 mi SSW 3.5 mph - N/A   Clear
8:34 PM 11.1 °F - 1.4 °F 65% 30.51 in 10.0 mi Calm Calm - N/A   Clear
8:54 PM 11.8 °F - 1.8 °F 64% 30.50 in 10.0 mi Calm Calm - N/A   Clear
9:14 PM 11.5 °F - 2.1 °F 66% 30.50 in 10.0 mi Calm Calm - N/A   Clear
9:34 PM 10.4 °F - 1.9 °F 69% 30.50 in 10.0 mi Calm Calm - N/A   Clear
9:54 PM 10.8 °F - 2.3 °F 69% 30.49 in 10.0 mi Calm Calm - N/A   Mostly Cloudy
10:14 PM 11.1 °F - 2.8 °F 69% 30.49 in 10.0 mi Calm Calm - N/A   Overcast
10:34 PM 11.3 °F - 3.0 °F 69% 30.47 in 10.0 mi Calm Calm - N/A   Overcast
10:54 PM 11.8 °F - 3.2 °F 68% 30.47 in 10.0 mi Calm Calm - N/A   Scattered Clouds
11:14 PM 12.9 °F - 1.8 °F 61% 30.47 in 10.0 mi Calm Calm - N/A   Mostly Cloudy
11:54 PM 12.2 °F - 1.6 °F 63% 30.47 in 10.0 mi Calm Calm - N/A   Overcast